Time,TemperatureF,DewpointF,PressureIn,WindDirection,WindDirectionDegrees,WindSpeedMPH,WindSpeedGustMPH,Humidity,HourlyPrecipIn,Conditions,Clouds,dailyrainin,SoftwareType,DateUTC
2013-06-22 00:00:00,42.8,19.0,29.94,East,101,6.0,9.6,38,0.00,,,-99.99,FreeWX 2.04,2013-06-22 06:00:00,
2013-06-22 00:10:00,42.6,18.9,29.94,ESE,105,6.0,11.0,38,0.00,,,-99.99,FreeWX 2.04,2013-06-22 06:10:00,
2013-06-22 00:20:00,42.8,19.0,29.94,East,101,6.0,11.2,38,0.00,,,-99.99,FreeWX 2.04,2013-06-22 06:20:00,
2013-06-22 00:30:00,42.3,18.5,29.94,East,97,6.0,12.5,38,0.00,,,-99.99,FreeWX 2.04,2013-06-22 06:30:00,
2013-06-22 00:40:00,42.4,17.4,29.94,East,100,6.0,10.5,36,0.00,,,-99.99,FreeWX 2.04,2013-06-22 06:40:00,
2013-06-22 00:50:00,42.1,17.1,29.94,East,95,5.0,11.0,36,0.00,,,-99.99,FreeWX 2.04,2013-06-22 06:50:00,
2013-06-22 01:00:00,41.9,16.3,29.94,East,99,5.0,9.6,35,0.00,,,-99.99,FreeWX 2.04,2013-06-22 07:00:00,
2013-06-22 01:10:00,41.7,16.2,29.94,ESE,105,4.0,8.7,35,0.00,,,-99.99,FreeWX 2.04,2013-06-22 07:10:00,
2013-06-22 01:20:00,40.6,16.3,29.94,East,96,3.0,7.8,37,0.00,,,-99.99,FreeWX 2.04,2013-06-22 07:20:00,
2013-06-22 01:30:00,41.9,14.2,29.94,ESE,113,5.0,9.2,32,0.00,,,-99.99,FreeWX 2.04,2013-06-22 07:30:00,
2013-06-22 01:40:00,41.7,14.7,29.94,ESE,103,5.0,10.1,33,0.00,,,-99.99,FreeWX 2.04,2013-06-22 07:40:00,
2013-06-22 01:50:00,40.8,14.7,29.94,ESE,102,5.0,9.6,34,0.00,,,-99.99,FreeWX 2.04,2013-06-22 07:50:00,
2013-06-22 02:00:00,41.2,14.9,29.94,East,98,5.0,11.6,34,0.00,,,-99.99,FreeWX 2.04,2013-06-22 08:00:00,
2013-06-22 02:10:00,41.0,14.2,29.94,ESE,102,5.0,10.1,33,0.00,,,-99.99,FreeWX 2.04,2013-06-22 08:10:00,
2013-06-22 02:20:00,41.4,13.8,29.94,ESE,105,5.0,9.6,32,0.00,,,-99.99,FreeWX 2.04,2013-06-22 08:20:00,
2013-06-22 02:30:00,42.3,13.1,29.94,ESE,105,5.0,10.5,30,0.00,,,-99.99,FreeWX 2.04,2013-06-22 08:30:00,
2013-06-22 02:40:00,41.4,13.8,29.94,East,94,4.0,9.6,32,0.00,,,-99.99,FreeWX 2.04,2013-06-22 08:40:00,
2013-06-22 02:50:00,40.6,14.5,29.94,East,99,4.0,7.4,34,0.00,,,-99.99,FreeWX 2.04,2013-06-22 08:50:00,
2013-06-22 03:00:00,41.2,14.4,29.94,East,100,4.0,6.9,33,0.00,,,-99.99,FreeWX 2.04,2013-06-22 09:00:00,
2013-06-22 03:11:00,40.6,15.8,29.94,East,95,3.0,6.7,36,0.00,,,-99.99,FreeWX 2.04,2013-06-22 09:11:00,
2013-06-22 03:21:00,40.6,15.8,29.94,ESE,102,4.0,8.3,36,0.00,,,-99.99,FreeWX 2.04,2013-06-22 09:21:00,
2013-06-22 03:31:00,40.5,15.6,29.94,East,95,4.0,8.3,36,0.00,,,-99.99,FreeWX 2.04,2013-06-22 09:31:00,
2013-06-22 03:41:00,41.0,14.7,29.94,East,100,2.0,8.3,34,0.00,,,-99.99,FreeWX 2.04,2013-06-22 09:41:00,
2013-06-22 03:51:00,40.8,15.3,29.94,ESE,105,5.0,8.3,35,0.00,,,-99.99,FreeWX 2.04,2013-06-22 09:51:00,
2013-06-22 04:01:00,39.9,16.3,29.94,North,-999,0.0,5.4,38,0.00,,,-99.99,FreeWX 2.04,2013-06-22 10:01:00,
2013-06-22 04:11:00,39.2,16.3,29.94,North,-999,0.0,0.0,39,0.00,,,-99.99,FreeWX 2.04,2013-06-22 10:11:00,
2013-06-22 04:21:00,38.8,16.5,29.94,North,-999,0.0,0.0,40,0.00,,,-99.99,FreeWX 2.04,2013-06-22 10:21:00,
2013-06-22 04:31:00,38.8,16.5,29.94,North,-999,0.0,0.0,40,0.00,,,-99.99,FreeWX 2.04,2013-06-22 10:31:00,
2013-06-22 04:41:00,38.3,16.2,29.94,North,-999,0.0,6.7,40,0.00,,,-99.99,FreeWX 2.04,2013-06-22 10:41:00,
2013-06-22 04:51:00,38.1,16.5,29.94,ESE,110,2.0,6.7,41,0.00,,,-99.99,FreeWX 2.04,2013-06-22 10:51:00,
2013-06-22 05:01:00,37.6,16.5,29.94,ESE,102,3.0,6.9,42,0.00,,,-99.99,FreeWX 2.04,2013-06-22 11:01:00,
2013-06-22 05:11:00,37.0,16.7,29.94,ESE,104,3.0,7.4,43,0.00,,,-99.99,FreeWX 2.04,2013-06-22 11:11:00,
2013-06-22 05:21:00,37.2,16.9,29.94,ESE,103,4.0,7.4,43,0.00,,,-99.99,FreeWX 2.04,2013-06-22 11:21:00,
2013-06-22 05:31:00,36.9,16.5,29.94,North,-999,0.0,6.3,43,0.00,,,-99.99,FreeWX 2.04,2013-06-22 11:31:00,
2013-06-22 05:41:00,37.2,16.9,29.94,East,94,4.0,7.4,43,0.00,,,-99.99,FreeWX 2.04,2013-06-22 11:41:00,
2013-06-22 05:51:00,37.2,16.9,29.94,East,94,3.0,6.7,43,0.00,,,-99.99,FreeWX 2.04,2013-06-22 11:51:00,
2013-06-22 06:01:00,37.6,16.5,29.94,East,94,3.0,6.7,42,0.00,,,-99.99,FreeWX 2.04,2013-06-22 12:01:00,
2013-06-22 06:11:00,38.5,16.3,29.94,East,98,3.0,8.3,40,0.00,,,-99.99,FreeWX 2.04,2013-06-22 12:11:00,
2013-06-22 06:21:00,39.4,16.5,29.94,East,100,4.0,7.8,39,0.00,,,-99.99,FreeWX 2.04,2013-06-22 12:21:00,
2013-06-22 06:31:00,39.7,16.9,29.94,East,95,3.0,6.9,39,0.00,,,-99.99,FreeWX 2.04,2013-06-22 12:31:00,
2013-06-22 06:41:00,40.3,16.7,29.94,ESE,102,4.0,8.3,38,0.00,,,-99.99,FreeWX 2.04,2013-06-22 12:41:00,
2013-06-22 06:51:00,40.3,17.2,29.94,East,97,4.0,8.3,39,0.00,,,-99.99,FreeWX 2.04,2013-06-22 12:51:00,
2013-06-22 07:01:00,40.6,17.1,29.94,East,94,4.0,6.9,38,0.00,,,-99.99,FreeWX 2.04,2013-06-22 13:01:00,
2013-06-22 07:11:00,40.5,17.4,29.94,East,90,1.0,5.8,39,0.00,,,-99.99,FreeWX 2.04,2013-06-22 13:11:00,
2013-06-22 07:21:00,42.1,18.3,29.94,North,-999,0.0,7.4,38,0.00,,,-99.99,FreeWX 2.04,2013-06-22 13:21:00,
2013-06-22 07:31:00,44.1,16.9,29.94,ESE,119,4.0,6.9,33,0.00,,,-99.99,FreeWX 2.04,2013-06-22 13:31:00,
2013-06-22 07:41:00,44.4,17.8,29.94,ESE,118,4.0,6.3,34,0.00,,,-99.99,FreeWX 2.04,2013-06-22 13:41:00,
2013-06-22 07:51:00,45.0,19.6,29.94,North,-999,0.0,4.0,36,0.00,,,-99.99,FreeWX 2.04,2013-06-22 13:51:00,
2013-06-22 08:01:00,45.9,20.5,29.94,ESE,112,1.0,5.4,36,0.00,,,-99.99,FreeWX 2.04,2013-06-22 14:01:00,
2013-06-22 08:11:00,46.2,20.1,29.97,North,-999,0.0,0.0,35,0.00,,,-99.99,FreeWX 2.04,2013-06-22 14:11:00,
2013-06-22 08:21:00,47.5,17.6,29.97,North,-999,0.0,0.0,30,0.00,,,-99.99,FreeWX 2.04,2013-06-22 14:21:00,
2013-06-22 08:31:00,50.2,14.7,29.97,SW,218,2.0,8.3,24,0.00,,,-99.99,FreeWX 2.04,2013-06-22 14:31:00,
2013-06-22 08:41:00,52.0,15.4,29.94,WSW,252,2.0,6.7,23,0.00,,,-99.99,FreeWX 2.04,2013-06-22 14:41:00,
2013-06-22 08:51:00,53.8,13.6,29.97,WSW,241,3.0,7.4,20,0.00,,,-99.99,FreeWX 2.04,2013-06-22 14:51:00,
2013-06-22 09:01:00,53.2,13.3,29.97,WSW,238,3.0,6.9,20,0.00,,,-99.99,FreeWX 2.04,2013-06-22 15:01:00,
2013-06-22 09:11:00,52.3,13.6,29.97,WSW,250,5.0,9.2,21,0.00,,,-99.99,FreeWX 2.04,2013-06-22 15:11:00,
2013-06-22 09:21:00,52.0,13.3,29.97,WSW,248,4.0,8.3,21,0.00,,,-99.99,FreeWX 2.04,2013-06-22 15:21:00,
2013-06-22 09:31:00,53.1,13.1,29.97,WSW,247,4.0,11.6,20,0.00,,,-99.99,FreeWX 2.04,2013-06-22 15:31:00,
2013-06-22 09:41:00,51.1,12.6,29.97,WSW,251,4.0,8.3,21,0.00,,,-99.99,FreeWX 2.04,2013-06-22 15:41:00,
2013-06-22 09:51:00,50.5,12.0,29.97,WSW,249,3.0,8.3,21,0.00,,,-99.99,FreeWX 2.04,2013-06-22 15:51:00,
2013-06-22 10:01:00,52.5,13.8,29.97,WSW,241,3.0,6.7,21,0.00,,,-99.99,FreeWX 2.04,2013-06-22 16:01:00,
2013-06-22 10:11:00,53.6,11.1,29.97,WNW,284,4.0,9.6,18,0.00,,,-99.99,FreeWX 2.04,2013-06-22 16:11:00,
2013-06-22 10:21:00,53.4,13.5,29.97,NW,312,4.0,8.3,20,0.00,,,-99.99,FreeWX 2.04,2013-06-22 16:21:00,
2013-06-22 10:31:00,53.1,13.1,29.97,NNW,334,5.0,10.5,20,0.00,,,-99.99,FreeWX 2.04,2013-06-22 16:31:00,
2013-06-22 10:41:00,53.6,13.5,29.97,NNW,340,5.0,10.1,20,0.00,,,-99.99,FreeWX 2.04,2013-06-22 16:41:00,
2013-06-22 10:51:00,52.3,13.6,29.97,NNW,331,3.0,8.3,21,0.00,,,-99.99,FreeWX 2.04,2013-06-22 16:51:00,
2013-06-22 11:01:00,52.0,18.1,29.97,NNW,348,5.0,9.2,26,0.00,,,-99.99,FreeWX 2.04,2013-06-22 17:01:00,
2013-06-22 11:11:00,51.6,17.8,29.97,NW,318,6.0,11.2,26,0.00,,,-99.99,FreeWX 2.04,2013-06-22 17:11:00,
2013-06-22 11:21:00,51.4,18.5,29.97,NW,325,6.0,10.5,27,0.00,,,-99.99,FreeWX 2.04,2013-06-22 17:21:00,
2013-06-22 11:31:00,52.2,15.4,29.97,West,277,3.0,6.9,23,0.00,,,-99.99,FreeWX 2.04,2013-06-22 17:31:00,
2013-06-22 11:42:00,52.7,12.7,29.97,WNW,286,5.0,9.6,20,0.00,,,-99.99,FreeWX 2.04,2013-06-22 17:42:00,
2013-06-22 11:52:00,53.2,13.3,29.97,WNW,298,3.0,6.7,20,0.00,,,-99.99,FreeWX 2.04,2013-06-22 17:52:00,
2013-06-22 12:02:00,53.8,13.6,29.97,West,274,5.0,11.2,20,0.00,,,-99.99,FreeWX 2.04,2013-06-22 18:02:00,
2013-06-22 12:12:00,54.5,11.8,29.97,West,270,3.0,6.9,18,0.00,,,-99.99,FreeWX 2.04,2013-06-22 18:12:00,
2013-06-22 12:22:00,54.5,14.2,29.97,WSW,252,3.0,8.7,20,0.00,,,-99.99,FreeWX 2.04,2013-06-22 18:22:00,
2013-06-22 12:32:00,53.8,11.3,29.97,NW,319,4.0,9.2,18,0.00,,,-99.99,FreeWX 2.04,2013-06-22 18:32:00,
2013-06-22 12:42:00,53.6,11.1,29.97,WNW,292,3.0,10.5,18,0.00,,,-99.99,FreeWX 2.04,2013-06-22 18:42:00,
2013-06-22 12:52:00,53.1,18.1,29.97,North,0,4.0,11.2,25,0.00,,,-99.99,FreeWX 2.04,2013-06-22 18:52:00,
2013-06-22 13:02:00,54.1,17.2,29.97,NW,313,4.0,10.1,23,0.00,,,-99.99,FreeWX 2.04,2013-06-22 19:02:00,
2013-06-22 13:12:00,55.4,15.1,29.97,West,277,2.0,5.4,20,0.00,,,-99.99,FreeWX 2.04,2013-06-22 19:12:00,
2013-06-22 13:22:00,55.4,11.3,29.97,WNW,287,2.0,6.7,17,0.00,,,-99.99,FreeWX 2.04,2013-06-22 19:22:00,
2013-06-22 13:32:00,58.3,13.6,29.97,SSW,194,1.0,6.3,17,0.00,,,-99.99,FreeWX 2.04,2013-06-22 19:32:00,
2013-06-22 13:42:00,57.9,13.5,29.94,WNW,303,5.0,12.5,17,0.00,,,-99.99,FreeWX 2.04,2013-06-22 19:42:00,
2013-06-22 13:52:00,55.6,11.5,29.94,NW,309,5.0,9.2,17,0.00,,,-99.99,FreeWX 2.04,2013-06-22 19:52:00,
2013-06-22 14:02:00,55.6,11.5,29.94,West,278,4.0,10.1,17,0.00,,,-99.99,FreeWX 2.04,2013-06-22 20:02:00,
2013-06-22 14:12:00,56.3,14.5,29.94,WNW,284,4.0,10.1,19,0.00,,,-99.99,FreeWX 2.04,2013-06-22 20:12:00,
2013-06-22 14:22:00,57.0,15.3,29.94,WNW,282,4.0,11.0,19,0.00,,,-99.99,FreeWX 2.04,2013-06-22 20:22:00,
2013-06-22 14:32:00,56.3,12.0,29.94,West,263,6.0,12.1,17,0.00,,,-99.99,FreeWX 2.04,2013-06-22 20:32:00,
2013-06-22 14:42:00,58.5,13.8,29.97,West,260,6.0,13.0,17,0.00,,,-99.99,FreeWX 2.04,2013-06-22 20:42:00,
2013-06-22 14:52:00,56.7,12.4,29.94,WNW,290,5.0,9.6,17,0.00,,,-99.99,FreeWX 2.04,2013-06-22 20:52:00,
2013-06-22 15:02:00,55.6,15.1,29.94,WNW,287,4.0,11.0,20,0.00,,,-99.99,FreeWX 2.04,2013-06-22 21:02:00,
2013-06-22 15:12:00,58.6,16.5,29.94,West,273,4.0,10.1,19,0.00,,,-99.99,FreeWX 2.04,2013-06-22 21:12:00,
2013-06-22 15:22:00,57.4,8.6,29.94,West,266,3.0,12.5,14,0.00,,,-99.99,FreeWX 2.04,2013-06-22 21:22:00,
2013-06-22 15:32:00,55.4,15.1,29.94,WNW,293,6.0,12.1,20,0.00,,,-99.99,FreeWX 2.04,2013-06-22 21:32:00,
2013-06-22 15:42:00,56.8,12.6,29.94,West,274,5.0,12.1,17,0.00,,,-99.99,FreeWX 2.04,2013-06-22 21:42:00,
2013-06-22 15:52:00,58.6,14.0,29.94,West,260,4.0,10.1,17,0.00,,,-99.99,FreeWX 2.04,2013-06-22 21:52:00,
2013-06-22 16:02:00,57.6,8.8,29.94,West,264,4.0,11.2,14,0.00,,,-99.99,FreeWX 2.04,2013-06-22 22:02:00,
2013-06-22 16:12:00,58.5,9.5,29.94,WSW,248,4.0,10.1,14,0.00,,,-99.99,FreeWX 2.04,2013-06-22 22:12:00,
2013-06-22 16:22:00,58.3,9.3,29.94,West,268,5.0,13.4,14,0.00,,,-99.99,FreeWX 2.04,2013-06-22 22:22:00,
2013-06-22 16:32:00,58.6,9.7,29.94,West,264,6.0,14.3,14,0.00,,,-99.99,FreeWX 2.04,2013-06-22 22:32:00,
2013-06-22 16:42:00,57.7,9.0,29.94,West,269,3.0,7.8,14,0.00,,,-99.99,FreeWX 2.04,2013-06-22 22:42:00,
2013-06-22 16:52:00,58.3,9.3,29.94,WNW,285,5.0,10.1,14,0.00,,,-99.99,FreeWX 2.04,2013-06-22 22:52:00,
2013-06-22 17:02:00,59.9,10.6,29.94,West,278,6.0,14.8,14,0.00,,,-99.99,FreeWX 2.04,2013-06-22 23:02:00,
2013-06-22 17:12:00,61.2,11.7,29.94,West,278,6.0,12.5,14,0.00,,,-99.99,FreeWX 2.04,2013-06-22 23:12:00,
2013-06-22 17:22:00,61.5,11.8,29.94,WSW,252,5.0,13.0,14,0.00,,,-99.99,FreeWX 2.04,2013-06-22 23:22:00,
2013-06-22 17:32:00,62.2,10.8,29.94,WSW,238,4.0,11.6,13,0.00,,,-99.99,FreeWX 2.04,2013-06-22 23:32:00,
2013-06-22 17:42:00,62.1,10.6,29.94,WSW,240,4.0,10.1,13,0.00,,,-99.99,FreeWX 2.04,2013-06-22 23:42:00,
2013-06-22 17:52:00,61.2,11.7,29.94,West,261,5.0,9.6,14,0.00,,,-99.99,FreeWX 2.04,2013-06-22 23:52:00,
2013-06-22 18:02:00,61.7,10.4,29.94,SW,229,3.0,8.3,13,0.00,,,-99.99,FreeWX 2.04,2013-06-23 00:02:00,
2013-06-22 18:12:00,61.9,10.6,29.94,WSW,249,4.0,8.7,13,0.00,,,-99.99,FreeWX 2.04,2013-06-23 00:12:00,
2013-06-22 18:22:00,61.7,12.0,29.94,WSW,254,4.0,13.4,14,0.00,,,-99.99,FreeWX 2.04,2013-06-23 00:22:00,
2013-06-22 18:32:00,61.0,6.1,29.94,West,263,4.0,11.2,11,0.00,,,-99.99,FreeWX 2.04,2013-06-23 00:32:00,
2013-06-22 18:42:00,62.8,11.3,29.94,WSW,246,3.0,7.8,13,0.00,,,-99.99,FreeWX 2.04,2013-06-23 00:42:00,
2013-06-22 18:52:00,61.5,6.6,29.94,West,272,5.0,11.2,11,0.00,,,-99.99,FreeWX 2.04,2013-06-23 00:52:00,
2013-06-22 19:02:00,61.2,6.3,29.94,West,265,4.0,10.5,11,0.00,,,-99.99,FreeWX 2.04,2013-06-23 01:02:00,
2013-06-22 19:12:00,60.8,5.9,29.94,West,271,4.0,9.6,11,0.00,,,-99.99,FreeWX 2.04,2013-06-23 01:12:00,
2013-06-22 19:22:00,60.4,5.7,29.94,WNW,282,4.0,8.3,11,0.00,,,-99.99,FreeWX 2.04,2013-06-23 01:22:00,
2013-06-22 19:32:00,60.6,5.9,29.94,WNW,282,3.0,8.7,11,0.00,,,-99.99,FreeWX 2.04,2013-06-23 01:32:00,
2013-06-22 19:42:00,60.3,5.5,29.94,West,266,3.0,8.3,11,0.00,,,-99.99,FreeWX 2.04,2013-06-23 01:42:00,
2013-06-22 19:52:00,60.1,5.4,29.94,West,277,2.0,6.7,11,0.00,,,-99.99,FreeWX 2.04,2013-06-23 01:52:00,
2013-06-22 20:02:00,59.7,10.4,29.94,North,-999,0.0,6.3,14,0.00,,,-99.99,FreeWX 2.04,2013-06-23 02:02:00,
2013-06-22 20:12:00,58.3,9.3,29.94,North,-999,0.0,4.5,14,0.00,,,-99.99,FreeWX 2.04,2013-06-23 02:12:00,
2013-06-22 20:22:00,58.8,9.7,29.94,North,-999,0.0,0.0,14,0.00,,,-99.99,FreeWX 2.04,2013-06-23 02:22:00,
2013-06-22 20:32:00,57.7,9.0,29.94,North,-999,0.0,0.0,14,0.00,,,-99.99,FreeWX 2.04,2013-06-23 02:32:00,
2013-06-22 20:42:00,55.8,8.8,29.94,North,-999,0.0,0.0,15,0.00,,,-99.99,FreeWX 2.04,2013-06-23 02:42:00,
2013-06-22 20:52:00,52.3,10.0,29.94,North,-999,0.0,2.7,18,0.00,,,-99.99,FreeWX 2.04,2013-06-23 02:52:00,
2013-06-22 21:02:00,48.9,16.3,29.94,ESE,122,4.0,6.9,27,0.00,,,-99.99,FreeWX 2.04,2013-06-23 03:02:00,
2013-06-22 21:12:00,47.5,18.3,29.94,SE,128,5.0,7.8,31,0.00,,,-99.99,FreeWX 2.04,2013-06-23 03:12:00,
2013-06-22 21:22:00,46.9,18.0,29.97,ESE,116,5.0,7.8,31,0.00,,,-99.99,FreeWX 2.04,2013-06-23 03:22:00,
2013-06-22 21:32:00,46.6,18.3,29.97,ESE,112,4.0,6.7,32,0.00,,,-99.99,FreeWX 2.04,2013-06-23 03:32:00,
2013-06-22 21:42:00,45.0,19.0,29.97,East,99,4.0,8.3,35,0.00,,,-99.99,FreeWX 2.04,2013-06-23 03:42:00,
2013-06-22 21:52:00,44.2,19.6,29.97,East,99,4.0,7.4,37,0.00,,,-99.99,FreeWX 2.04,2013-06-23 03:52:00,
2013-06-22 22:02:00,43.9,19.4,29.97,ESE,106,4.0,6.7,37,0.00,,,-99.99,FreeWX 2.04,2013-06-23 04:02:00,
2013-06-22 22:12:00,42.8,19.0,29.97,East,97,3.0,6.3,38,0.00,,,-99.99,FreeWX 2.04,2013-06-23 04:12:00,
2013-06-22 22:22:00,43.2,19.2,29.97,East,87,3.0,8.3,38,0.00,,,-99.99,FreeWX 2.04,2013-06-23 04:22:00,
2013-06-22 22:32:00,42.4,18.7,29.97,East,85,3.0,7.4,38,0.00,,,-99.99,FreeWX 2.04,2013-06-23 04:32:00,
2013-06-22 22:42:00,43.9,18.0,29.97,East,100,4.0,7.8,35,0.00,,,-99.99,FreeWX 2.04,2013-06-23 04:42:00,
2013-06-22 22:52:00,44.4,16.3,29.97,ESE,111,6.0,10.1,32,0.00,,,-99.99,FreeWX 2.04,2013-06-23 04:52:00,
2013-06-22 23:02:00,43.7,16.5,29.97,East,101,5.0,8.3,33,0.00,,,-99.99,FreeWX 2.04,2013-06-23 05:02:00,
2013-06-22 23:12:00,43.7,15.8,29.97,ESE,119,5.0,11.6,32,0.00,,,-99.99,FreeWX 2.04,2013-06-23 05:12:00,
2013-06-22 23:22:00,44.2,15.6,29.97,ESE,108,5.0,9.2,31,0.00,,,-99.99,FreeWX 2.04,2013-06-23 05:22:00,
2013-06-22 23:33:00,42.8,15.8,29.97,East,101,4.0,7.4,33,0.00,,,-99.99,FreeWX 2.04,2013-06-23 05:33:00,
2013-06-22 23:43:00,43.5,15.6,29.97,ESE,103,5.0,8.7,32,0.00,,,-99.99,FreeWX 2.04,2013-06-23 05:43:00,
2013-06-22 23:53:00,42.8,15.8,29.97,ESE,104,4.0,11.0,33,0.00,,,-99.99,FreeWX 2.04,2013-06-23 05:53:00,